Regional Weather Roundup
Issued by NWS

Home | Current Version | Previous Version | Graphics & Text | Print | Product List | Glossary On
Versions: 1 2 3 4 5 6 7 8 9 10 11 12 13 14 15 16 17 18 19 20 21 22 23 24 25 26 27 28 29 30 31 32 33 34 35 36 37 38 39 40 41 42 43 44 45 46 47 48 49 50
000
ASUS43 KDTX 261310
RWRMI
MICHIGAN HOURLY REGIONAL WEATHER ROUNDUP
NATIONAL WEATHER SERVICE DETROIT/PONTIAC MI
800 AM EST MON JAN 26 2015

NOTE: "FAIR" INDICATES FEW OR NO CLOUDS BELOW 12,000 FEET WITH NO
SIGNIFICANT WEATHER AND/OR OBSTRUCTION TO VISIBILITY.

MIZ047>049-052>055-059>063-066>070-074>076-081>083-261400-
SOUTHEAST LOWER MICHIGAN

CITY           SKY/WX    TMP DP  RH WIND       PRES   REMARKS
ADRIAN         CLEAR      9   5  84 N8        29.93R
ALMA           CLEAR      5   3  91 CALM      29.99S
ANN ARBOR      CLEAR     11   5  77 N8        29.93R
BAD AXE        CLEAR      3   1  91 CALM      29.97F
DETROIT CITY   CLEAR     12   4  70 N7        29.94R
DETROIT          N/A     11   5  77 N6        29.94R
FLINT          CLEAR     10   5  80 N6        29.97R
GROSSE ILE     CLEAR     10   3  72 N7        29.91S
HILLSDALE      PTCLDY     7   5  90 N3        29.90R
HOWELL         CLEAR      8   6  92 N3        29.94R

CITY           SKY/WX    TMP DP  RH WIND       PRES   REMARKS
JACKSON        CLEAR      8   4  83 N3        29.93R
LAMBERTVILLE   CLEAR     12   5  73 N3        29.93R
LANSING        CLEAR      8   5  87 N5        29.97R
LAPEER         NOT AVBL
MASON          CLEAR      9   6  88 N3        29.94S
MONROE         CLEAR     10   3  72 N6        29.91R
MT. CLEMENS    PTCLDY     9   5  84 N9        29.91S
PONTIAC        PTCLDY     6   3  87 N5        29.92R
PORT HOPE        N/A     17   9  70 E8        29.97S
PORT HURON     CLEAR      5   3  92 N5        29.94S
TRI CITIES     CLEAR      7   3  84 N7        30.00R
YPSILANTI      CLEAR     12   4  70 N6        29.94R
$$
MIZ043>046-050>051-056>058-064>065-071>073-077>080-261400-
SOUTHWEST LOWER MICHIGAN

CITY           SKY/WX    TMP DP  RH WIND       PRES   REMARKS
BATTLE CREEK   CLEAR     10   5  80 NE5       29.94F
BENTON HARBOR  PTCLDY    10   7  87 NE3       29.98R
BIG RAPIDS     PTCLDY     0  -3  87 CALM      29.96S
COLDWATER      PTCLDY     7   5  91 CALM      29.93S
HOLLAND        PTCLDY    12   7  80 CALM      29.98F
GRAND RAPIDS   PTCLDY     8   4  83 NE3       29.98R
KALAMAZOO      PTCLDY     8   5  87 CALM      29.95S
MARSHALL       CLEAR      8   6  90 N3        29.93F
MUSKEGON       MOCLDY     9   4  80 NE3       29.99S
$$
MIZ016>042-261400-
NORTHERN LOWER MICHIGAN

CITY           SKY/WX    TMP DP  RH WIND       PRES   REMARKS
ALPENA         CLOUDY    -2  -6  83 CALM      30.01F
BEAVER ISLAND  CLOUDY     4   2  89 CALM      29.98F
BELLAIRE       PTCLDY    -6 -11  81 CALM      30.01S
CADILLAC       MOCLDY    -4 -11  72 CALM      29.92S
CHARLEVOIX     PTCLDY    -1  -4  86 CALM      30.02S
FRANKFORT      MOSUNNY    2  -1  86 CALM      29.98F
GAYLORD        PTCLDY   -12 -16  82 CALM      29.93F
GRAYLING       MOCLDY   -12 -19  73 CALM      29.96F
HARBOR SPRINGS MOCLDY    -5  -9  82 NE6       29.99S
HOUGHTON LAKE  MOCLDY    -9 -13  83 CALM      29.95F
MANISTEE       PTCLDY     1  -2  85 E6        29.98F
OSCODA         CLOUDY    12   9  87 NW3       30.00S
PELLSTON       MOCLDY   -14 -19  79 CALM      30.01F
TRAVERSE CITY  CLOUDY     1  -3  83 CALM      29.99F
$$
MIZ007>008-015-261400-
EASTERN UPPER MICHIGAN

CITY           SKY/WX    TMP DP  RH WIND       PRES   REMARKS
KINROSS        PTCLDY    -2  -4  92 E5        30.00F
MACKINAC ISLAN MOCLDY    10   4  75 S6        29.99F
NEWBERRY       MOCLDY    -4  -8  84 SE5       29.97S
S. S. MARIE    CLOUDY    -1  -7  75 E5        30.02F
$$
MIZ004>006-011>014-085-261400-
CENTRAL UPPER MICHIGAN

CITY           SKY/WX    TMP DP  RH WIND       PRES   REMARKS
MANISTIQUE     CLOUDY    19  13  76 S13       29.95S
ESCANABA       CLOUDY     3   0  85 CALM      29.93S
MENOMINEE      CLOUDY    10   7  85 CALM      29.94F
SAWYER-GWINN   CLEAR      7   3  85 S3        29.87F
$$
MIZ001>003-009>011-084-261400-
WESTERN UPPER MICHIGAN

CITY           SKY/WX    TMP DP  RH WIND       PRES   REMARKS
IRON MOUNTAIN  CLOUDY     6   2  83 S5        29.85F
HOUGHTON       MOCLDY    11   4  73 S7        29.78F
COPPER HARBOR    N/A     18   9  68 SW6       29.83F
IRONWOOD       CLOUDY    18  12  79 S6G16     29.70F
$$

ABBREVIATIONS USED IN REMARKS
   TC - TEMPERATURE IN CELSIUS
  WCI - WIND CHILL INDEX
   HX - HEAT INDEX
  VSB - VISIBILITY



USA.gov is the U.S. government's official web portal to all federal, state and local government web resources and services.